Time,TemperatureF,DewpointF,PressureIn,WindDirection,WindDirectionDegrees,WindSpeedMPH,WindSpeedGustMPH,Humidity,HourlyPrecipIn,Conditions,Clouds,dailyrainin,SoftwareType,DateUTC
2016-02-09 00:04:00,45.5,42.4,30.24,East,91,0.0,0.0,89,0.00,CLR,,0.00,WeatherDisplay:10.37,2016-02-08 22:04:00,
2016-02-09 00:09:00,45.3,41.1,30.24,East,91,0.0,0.0,85,0.00,CLR,,0.00,WeatherDisplay:10.37,2016-02-08 22:09:00,
2016-02-09 00:14:00,45.2,41.0,30.25,East,91,0.0,0.0,85,0.00,CLR,,0.00,WeatherDisplay:10.37,2016-02-08 22:14:00,
2016-02-09 00:19:00,45.1,40.9,30.24,East,91,0.0,0.0,85,0.00,CLR,,0.00,WeatherDisplay:10.37,2016-02-08 22:19:00,
2016-02-09 00:24:00,45.0,41.1,30.24,East,91,0.0,0.0,86,0.00,CLR,,0.00,WeatherDisplay:10.37,2016-02-08 22:24:00,
2016-02-09 00:29:00,44.8,40.9,30.24,East,91,0.0,0.0,86,0.00,CLR,,0.00,WeatherDisplay:10.37,2016-02-08 22:29:00,
2016-02-09 00:34:00,44.7,40.8,30.24,East,91,0.0,0.0,86,0.00,CLR,,0.00,WeatherDisplay:10.37,2016-02-08 22:34:00,
2016-02-09 00:39:00,44.7,40.8,30.24,East,91,0.0,0.0,86,0.00,CLR,,0.00,WeatherDisplay:10.37,2016-02-08 22:39:00,
2016-02-09 00:45:00,44.6,40.7,30.24,East,92,0.0,0.0,86,0.00,CLR,,0.00,WeatherDisplay:10.37,2016-02-08 22:45:00,
2016-02-09 00:50:00,44.5,40.6,30.24,East,91,0.0,0.0,86,0.00,CLR,,0.00,WeatherDisplay:10.37,2016-02-08 22:50:00,
2016-02-09 00:55:00,44.3,40.4,30.24,East,91,0.0,0.0,86,0.00,CLR,,0.00,WeatherDisplay:10.37,2016-02-08 22:55:00,
2016-02-09 01:00:00,44.2,40.6,30.24,East,91,0.0,0.0,87,0.00,CLR,,0.00,WeatherDisplay:10.37,2016-02-08 23:00:00,
2016-02-09 01:05:00,44.1,40.5,30.24,East,91,0.0,0.0,87,0.00,CLR,,0.00,WeatherDisplay:10.37,2016-02-08 23:05:00,
2016-02-09 01:10:00,44.0,40.4,30.24,East,91,0.0,0.0,87,0.00,CLR,,0.00,WeatherDisplay:10.37,2016-02-08 23:10:00,
2016-02-09 01:15:00,43.9,40.3,30.24,East,91,0.0,0.0,87,0.00,CLR,,0.00,WeatherDisplay:10.37,2016-02-08 23:15:00,
2016-02-09 01:20:00,43.8,40.5,30.24,East,91,0.0,0.0,88,0.00,CLR,,0.00,WeatherDisplay:10.37,2016-02-08 23:20:00,
2016-02-09 01:25:00,43.8,40.5,30.23,East,91,0.0,0.0,88,0.00,CLR,,0.00,WeatherDisplay:10.37,2016-02-08 23:25:00,
2016-02-09 01:30:00,43.8,40.5,30.23,East,91,0.0,0.0,88,0.00,CLR,,0.00,WeatherDisplay:10.37,2016-02-08 23:30:00,
2016-02-09 01:35:00,43.7,40.4,30.23,East,91,0.0,0.0,88,0.00,CLR,,0.00,WeatherDisplay:10.37,2016-02-08 23:35:00,
2016-02-09 01:40:00,43.6,40.3,30.23,East,91,0.0,0.0,88,0.00,CLR,,0.00,WeatherDisplay:10.37,2016-02-08 23:40:00,
2016-02-09 01:45:00,43.6,40.3,30.23,East,91,1.0,1.0,88,0.00,CLR,,0.00,WeatherDisplay:10.37,2016-02-08 23:45:00,
2016-02-09 01:50:00,43.5,40.2,30.23,East,91,1.2,1.2,88,0.00,CLR,,0.00,WeatherDisplay:10.37,2016-02-08 23:50:00,
2016-02-09 01:55:00,43.5,40.2,30.23,East,91,0.0,0.4,88,0.00,CLR,,0.00,WeatherDisplay:10.37,2016-02-08 23:55:00,
2016-02-09 02:00:00,43.4,40.1,30.23,East,91,0.0,0.0,88,0.00,CLR,,0.00,WeatherDisplay:10.37,2016-02-09 00:00:00,
2016-02-09 02:05:00,43.4,40.1,30.23,East,91,1.2,0.0,88,0.00,CLR,,0.00,WeatherDisplay:10.37,2016-02-09 00:05:00,
2016-02-09 02:10:00,43.3,40.0,30.23,East,91,0.0,2.0,88,0.00,CLR,CLR,0.00,WeatherDisplay:10.37,2016-02-09 00:10:00,
2016-02-09 02:15:00,43.2,39.9,30.23,East,91,1.0,1.0,88,0.00,CLR,,0.00,WeatherDisplay:10.37,2016-02-09 00:15:00,